Probability
30 30 30 29 25 18 12 12 12 10 10 10 7 6 5 4 4 5 5 4 3 3 1 0 0 1 1 0 0 0 0 1 3 3 3 1 0 0 0 0 0 0 0
33 32 31 30 25 18 14 14 13 10 7 7 5 4 4 3 3 4 4 3 3 3 2 1 0 1 1 0 0 0 0 1 2 3 3 2 1 0 0 0 0 0 0
40 37 34 31 26 20 16 16 13 8 5 4 3 3 3 3 3 3 3 3 3 3 2 1 0 1 1 0 0 0 0 1 1 1 2 2 1 1 0 0 0 0 0
46 41 37 34 31 25 20 17 12 7 6 5 4 3 3 3 3 3 3 3 3 3 2 1 0 0 0 0 0 0 0 0 0 0 1 1 0 0 0 0 0 0 0
50 46 41 39 37 32 27 21 15 11 10 8 5 3 3 3 3 3 3 3 3 2 1 0 0 0 0 0 0 0 0 0 0 0 0 0 0 0 0 0 0 0 0
55 52 47 45 42 37 32 27 23 19 15 10 6 4 4 3 2 2 2 2 2 1 0 0 0 0 0 0 0 0 0 0 0 0 0 0 0 0 0 0 0 0 0
58 57 54 50 45 39 35 32 29 24 19 13 8 5 4 3 1 0 0 1 1 0 0 0 0 0 0 0 0 0 0 0 0 0 0 0 0 0 0 0 0 0 0
58 58 56 52 46 39 36 34 30 27 23 18 11 6 4 3 1 0 0 0 0 0 0 0 0 0 0 0 0 0 0 0 0 0 0 0 0 0 0 0 0 0 0
56 56 54 50 45 40 37 33 29 27 25 22 16 10 6 3 2 0 0 0 0 0 0 0 0 0 0 0 0 0 0 0 0 0 0 0 0 0 0 0 0 0 0
53 52 50 47 43 39 37 32 27 25 26 25 22 16 10 5 1 0 0 0 0 0 0 0 0 0 0 0 0 0 0 0 0 0 0 0 0 0 0 0 0 0 0
51 50 47 44 40 36 33 30 26 25 27 26 23 19 14 8 3 1 0 0 0 0 0 0 0 0 0 0 0 0 0 0 0 0 0 0 0 0 0 0 0 0 0
50 50 47 43 39 33 30 29 27 26 25 24 22 19 16 12 6 2 0 0 0 1 1 1 1 0 0 0 0 0 0 0 0 0 0 0 0 0 0 0 0 0 0
49 50 47 43 39 34 30 29 27 25 23 22 20 19 18 15 10 4 1 1 0 1 1 2 1 0 0 0 0 0 0 0 0 0 0 0 0 0 0 0 0 0 0
47 46 44 41 38 34 31 28 26 23 21 20 19 18 18 16 13 7 4 2 1 0 1 1 1 0 0 0 0 0 0 0 0 0 0 0 0 0 0 0 0 0 0
43 41 40 38 35 31 27 25 22 20 17 15 15 16 16 15 13 9 5 2 1 0 0 0 0 0 0 0 0 0 0 0 0 0 0 0 0 0 0 0 0 0 0
39 38 36 35 32 28 24 20 17 14 9 7 7 9 11 10 8 5 2 1 0 0 1 1 1 1 0 0 0 0 0 0 0 0 0 0 0 0 0 0 0 0 0
33 33 32 29 28 26 22 18 13 9 5 2 2 3 4 4 3 1 0 0 0 1 2 2 1 0 0 0 0 0 0 0 0 0 0 0 0 0 0 0 0 0 0
24 26 26 25 24 22 20 17 12 9 7 4 1 0 1 1 0 0 0 0 1 1 2 1 0 0 0 0 0 0 0 0 0 0 0 0 0 0 0 0 0 0 0
18 20 22 23 21 19 17 16 13 10 8 6 3 1 0 0 0 0 0 0 1 2 2 1 0 0 0 0 0 0 0 1 1 1 1 1 1 0 0 0 0 0 0
17 17 18 19 19 17 16 16 14 11 9 7 5 3 1 0 0 0 0 0 1 1 1 0 0 0 0 0 0 0 1 2 2 2 2 2 2 1 0 0 0 0 0
18 17 16 16 17 16 16 16 15 12 10 8 6 3 1 0 0 0 0 0 0 0 0 0 0 0 0 1 1 1 2 3 3 3 3 3 2 1 0 0 0 0 0
19 17 16 16 15 15 15 16 16 14 12 9 7 4 1 0 0 0 0 0 0 0 0 0 0 0 1 2 2 3 3 3 3 3 2 1 1 0 0 0 0 0 0
17 16 16 15 15 14 15 16 16 15 13 11 9 6 3 2 1 1 1 1 1 2 1 1 1 1 2 3 3 3 3 3 3 2 1 0 0 0 0 0 0 0 0
14 15 14 13 13 13 14 14 15 16 15 14 11 8 5 4 3 2 2 2 3 3 3 2 2 3 3 3 3 3 3 3 2 1 0 0 0 0 0 0 0 0 0
12 12 12 11 11 11 11 12 13 14 14 14 12 8 5 3 3 2 2 2 3 3 3 3 3 3 3 3 3 3 2 1 1 0 0 0 0 0 0 0 0 0 0
11 11 10 10 10 10 10 10 11 13 12 12 12 8 4 1 1 1 1 1 2 3 3 3 3 3 3 3 3 2 1 0 0 0 0 0 0 0 0 0 0 0 0
Wind_Speed
8 7 6 5 5 5 5 5 4 3 3 3 3 2 2 2 2 2 1 1 1 1 1 1 1 1 1 1 2 2 2 3 4 2 1 2 3 4 3 3 4 3 4
8 7 6 6 6 5 5 5 4 4 3 3 3 3 2 2 2 1 1 1 1 1 1 2 1 1 2 1 2 2 2 3 4 4 2 2 3 4 4 3 3 4 3
8 7 7 6 7 6 5 5 4 4 4 3 3 3 2 2 2 1 1 1 1 2 2 2 1 2 2 1 2 2 2 3 4 5 4 2 2 3 3 3 3 2 3
8 8 7 7 7 7 6 5 5 5 4 4 3 3 3 2 2 2 2 2 2 2 2 2 2 2 2 2 3 3 4 5 5 5 4 3 2 2 3 3 2 1 1
8 8 8 7 7 6 6 6 5 5 5 4 4 3 3 2 2 2 2 2 2 2 2 1 1 2 3 3 3 4 5 5 5 5 4 3 2 3 3 2 3 2 1
9 8 7 7 7 7 7 6 6 5 4 4 4 4 3 2 3 4 3 2 2 3 2 1 1 2 3 4 6 7 8 8 7 5 4 4 4 4 3 4 3 3 1
8 7 7 8 7 7 7 7 6 6 5 5 4 4 3 3 4 5 4 3 2 2 3 2 2 2 3 4 5 6 5 7 9 7 7 6 6 6 6 5 3 3 3
8 7 7 7 7 7 7 7 6 5 6 5 5 5 4 4 5 6 5 3 2 2 2 3 3 3 3 5 5 4 3 2 3 4 5 5 5 5 6 6 5 3 1
7 8 8 8 8 7 7 7 6 5 5 5 5 5 5 4 5 6 6 2 2 1 1 2 3 3 4 7 5 4 3 1 2 4 4 5 7 9 7 5 4 4 2
8 8 8 8 8 8 8 7 5 5 5 5 5 5 5 4 5 7 6 3 2 1 1 1 3 4 6 7 5 5 4 3 3 2 2 3 4 6 8 6 6 4 3
7 6 7 8 8 8 6 5 5 5 5 5 5 4 4 5 6 8 7 4 4 3 2 2 2 5 6 7 6 5 6 5 3 3 2 2 2 2 3 3 4 5 4
6 7 7 7 6 6 6 5 5 6 6 5 4 3 3 4 5 7 9 8 6 4 4 3 3 6 7 7 5 4 6 5 3 3 2 2 2 2 3 3 4 4 4
6 6 6 6 5 5 6 6 5 5 5 4 4 4 3 3 4 8 9 10 9 5 4 5 6 6 6 5 5 6 5 4 3 3 3 3 3 3 2 2 2 2 2
6 6 5 6 5 4 4 5 5 5 5 5 5 5 4 3 4 4 5 5 7 5 3 4 5 5 4 3 3 3 3 4 4 4 4 3 2 2 2 2 2 2 1
5 4 4 5 5 4 4 4 6 6 7 7 6 5 5 6 7 9 7 6 6 6 4 1 1 1 2 2 2 2 3 3 3 3 3 3 2 2 2 2 2 2 2
4 4 4 4 4 4 4 2 2 3 5 7 7 6 6 8 9 10 11 10 10 10 6 3 4 5 5 6 5 4 4 5 5 4 4 4 4 4 3 2 2 3 3
4 4 4 4 4 4 4 4 3 2 1 4 6 7 7 7 8 9 10 10 9 10 5 5 6 6 6 6 6 6 5 5 4 4 5 4 4 4 3 3 3 3 3
3 4 4 4 4 4 4 5 5 5 3 2 3 5 7 7 8 8 7 6 4 6 5 6 6 6 6 6 6 5 5 4 4 4 5 5 5 4 4 4 4 5 4
2 3 3 4 4 4 4 4 4 5 4 3 2 2 4 5 5 6 8 5 6 6 6 6 5 5 5 5 5 5 5 5 5 5 5 5 5 5 5 5 5 6 5
2 4 3 3 3 4 4 4 4 4 4 4 4 4 3 3 2 4 5 5 6 6 6 6 5 5 5 5 4 4 4 4 5 5 5 5 5 5 6 6 5 4 5
2 3 5 3 3 4 4 4 4 4 4 4 4 5 6 5 6 6 6 6 6 6 6 6 5 5 5 4 4 5 6 5 5 5 4 4 4 4 4 4 5 5 4
2 2 2 3 3 3 4 4 4 4 4 4 3 3 6 4 4 4 5 6 6 5 5 4 5 5 5 5 5 5 5 5 4 4 4 4 4 4 4 4 4 4 4
2 2 1 2 2 3 3 3 4 4 4 4 3 3 3 4 4 4 5 5 4 4 4 4 4 4 3 3 4 5 5 5 5 5 4 4 4 4 4 4 5 5 5
1 2 2 1 2 2 3 3 4 4 4 4 3 3 4 5 5 5 5 4 4 4 3 4 4 5 6 4 3 3 4 4 4 4 6 5 4 4 3 4 4 5 5
1 1 1 2 2 2 2 3 3 3 3 3 3 3 3 3 4 4 4 3 4 3 3 3 3 4 5 6 4 3 4 5 4 4 4 4 4 4 4 4 3 3 4
0 1 1 1 1 1 1 1 1 1 1 1 2 2 2 3 3 2 2 2 2 2 2 2 3 3 3 3 4 4 3 4 4 4 4 3 4 4 4 3 4 4 4
Wind_Direction
183 185 181 179 176 169 165 164 162 161 149 142 134 123 116 104 99 105 129 101 98 63 53 76 53 75 85 125 139 135 128 126 130 113 95 120 113 118 106 92 88 81 97
181 178 176 171 163 161 161 160 154 149 145 140 134 122 119 108 103 111 113 102 102 94 65 65 40 70 68 94 126 125 126 126 133 136 130 124 120 134 124 116 110 106 97
173 170 169 168 167 167 163 158 150 145 141 131 127 128 123 117 111 123 137 135 123 116 106 96 84 89 83 90 114 117 118 114 114 134 137 124 117 133 117 113 104 91 115
171 170 175 177 174 170 163 153 152 151 146 143 142 141 134 124 120 118 116 114 102 100 103 111 112 127 137 131 125 125 120 114 117 127 129 126 119 124 125 128 111 88 113
170 176 183 176 169 165 159 156 156 155 155 153 146 142 145 141 145 139 135 130 124 107 87 78 109 135 145 147 143 143 135 129 132 132 136 131 138 150 165 156 141 127 78
173 176 173 168 167 167 163 159 157 157 155 151 153 154 156 161 154 150 137 129 140 142 140 132 122 110 124 129 134 141 150 151 154 151 154 164 173 171 158 158 148 144 188
178 175 171 168 169 169 167 162 165 166 161 159 159 156 167 178 164 160 153 140 142 157 165 166 161 138 133 130 127 121 132 152 158 160 164 178 177 180 167 166 170 167 189
176 175 172 169 170 169 167 170 171 168 170 171 171 171 175 185 171 165 156 138 134 138 161 170 159 152 153 145 135 118 110 125 156 158 171 183 179 174 175 173 169 152 129
179 179 177 172 170 173 177 180 178 172 173 172 176 178 181 193 181 171 155 138 142 141 168 166 157 155 164 151 137 133 123 108 126 144 161 170 167 164 158 139 139 139 163
187 183 177 173 175 179 183 181 177 172 176 173 180 184 185 192 190 178 165 153 161 177 172 171 166 164 165 162 152 152 157 178 156 135 126 143 157 167 167 166 165 160 160
182 175 175 177 180 181 178 175 172 173 172 175 182 194 196 196 195 188 181 175 183 184 187 207 210 182 173 176 170 171 186 177 169 163 156 150 148 166 183 184 179 169 171
168 171 176 177 179 175 173 172 174 175 178 184 188 202 213 206 199 199 193 196 194 192 201 202 203 192 189 191 188 189 178 160 148 150 159 182 193 206 212 205 199 199 199
166 171 173 173 175 171 172 175 177 179 183 190 193 205 216 216 211 205 199 200 199 198 206 200 198 197 194 201 209 190 169 158 159 171 194 211 211 208 197 188 191 197 227
167 172 170 173 175 176 179 179 183 188 191 195 202 210 211 212 213 204 202 203 205 208 213 214 205 200 195 203 201 196 187 181 179 191 199 208 196 181 186 184 188 185 193
167 169 172 177 179 183 186 190 195 200 199 196 203 201 198 214 219 205 195 198 198 197 169 147 160 180 204 214 214 214 204 192 199 202 198 199 196 193 205 195 184 174 187
163 172 174 177 178 178 179 189 215 213 219 219 212 203 214 217 207 202 203 201 193 176 161 186 204 209 211 209 208 211 208 207 208 202 200 200 201 205 208 203 188 187 203
180 183 182 182 183 187 190 189 204 247 234 227 224 215 213 210 203 201 203 200 190 171 185 208 212 213 214 212 210 208 211 211 203 199 202 205 206 206 199 200 196 198 210
191 190 191 193 192 194 196 196 193 195 206 236 246 229 220 213 208 204 193 169 184 193 211 215 218 217 213 211 211 209 208 205 202 205 205 206 203 197 198 202 201 202 208
203 201 200 200 198 199 196 194 197 198 200 204 216 246 229 211 201 195 172 183 200 208 215 220 217 213 214 211 211 210 207 207 206 203 206 206 202 199 207 209 205 206 203
224 215 212 210 206 202 197 196 197 198 200 202 207 212 186 160 188 200 202 211 214 218 213 215 216 213 209 207 206 205 207 210 212 213 213 210 205 201 205 206 202 200 207
237 222 213 210 210 207 203 203 202 202 203 209 218 213 189 195 208 210 209 215 218 221 220 214 212 211 209 205 204 204 207 212 213 213 215 214 206 203 205 202 203 205 206
235 227 212 208 207 207 205 203 200 201 205 210 223 217 205 211 216 216 217 221 223 223 220 214 214 213 208 203 201 201 204 209 212 212 209 208 203 200 201 200 203 204 201
227 223 222 220 206 195 198 200 200 203 207 213 215 215 207 219 226 224 223 224 222 222 218 208 210 216 211 204 200 198 202 207 209 204 202 204 202 200 199 202 206 202 202
224 211 207 204 197 194 198 205 208 210 212 213 213 217 218 220 223 224 222 218 211 212 207 201 203 204 201 201 204 205 206 205 198 198 194 196 200 200 200 201 206 209 206
212 197 200 201 199 201 201 210 215 214 212 210 210 217 223 220 222 220 215 209 198 196 197 196 199 198 197 198 199 205 206 199 200 196 189 189 197 199 198 199 200 207 211
129 159 181 185 188 188 187 196 203 206 208 204 212 223 220 217 219 216 213 208 197 195 192 192 195 194 196 201 203 200 199 196 197 196 190 189 200 207 202 205 206 208 208